KL7GG Weather Reports


Display with metric or nautical units.
time (UTC)temp
F
wind
direction
speed
MPH
gust
MPH
rain 1hr
in
rain 24hr
in
rain mn
in
humidity
%
barometer
mb
20260506184928 45 299 2.0 5.0 0.00 0.00 0.00 63 1009.6
20260506183424 46 294 2.0 5.0 0.00 0.00 0.00 63 1009.4
20260506181920 45 252 4.0 6.0 0.00 0.00 0.00 63 1009.4
20260506180416 44 0 0.0 4.0 0.00 0.00 0.00 64 1009.3
20260506174912 44 286 2.0 4.0 0.00 0.00 0.00 64 1009.3
20260506173408 43 0 0.0 2.0 0.00 0.00 0.00 65 1009.2
20260506171904 42 0 0.0 0.0 0.00 0.00 0.00 68 1009.3
20260506170358 41 0 0.0 2.0 0.00 0.00 0.00 69 1009.3
20260506163348 40 0 0.0 0.0 0.00 0.00 0.00 71 1009.0
20260506161844 40 0 0.0 0.0 0.00 0.00 0.00 72 1008.9
20260506160340 39 0 0.0 0.0 0.00 0.00 0.00 75 1008.8
20260506154836 38 0 0.0 0.0 0.00 0.00 0.00 75 1008.9
20260506153332 38 0 0.0 0.0 0.00 0.00 0.00 76 1008.8
20260506151828 38 0 0.0 0.0 0.00 0.00 0.00 76 1008.8
20260506150318 38 0 0.0 0.0 0.00 0.00 0.00 77 1008.7
20260506144814 38 0 0.0 0.0 0.00 0.00 0.00 77 1008.7
20260506143310 37 0 0.0 0.0 0.00 0.00 0.00 77 1008.6
20260506141806 37 0 0.0 0.0 0.00 0.00 0.00 76 1008.6
20260506140302 37 0 0.0 0.0 0.00 0.00 0.00 75 1008.7
20260506134758 37 0 0.0 0.0 0.00 0.00 0.00 74 1008.7
20260506133254 37 0 0.0 0.0 0.00 0.00 0.00 73 1008.6
20260506131751 38 0 0.0 0.0 0.00 0.00 0.00 72 1008.6
20260506130246 38 0 0.0 0.0 0.00 0.00 0.00 71 1008.3
20260506124740 39 0 0.0 0.0 0.00 0.00 0.00 69 1008.3
20260506123237 39 0 0.0 0.0 0.00 0.00 0.00 68 1008.2
20260506121732 39 0 0.0 0.0 0.00 0.00 0.00 67 1008.0
20260506120228 39 0 0.0 0.0 0.00 0.00 0.00 67 1008.0
20260506114724 39 0 0.0 0.0 0.00 0.00 0.00 69 1007.9
20260506113220 39 0 0.0 0.0 0.00 0.00 0.00 69 1007.8
20260506111716 39 0 0.0 0.0 0.00 0.00 0.00 71 1007.8
20260506110212 39 0 0.0 0.0 0.00 0.00 0.00 72 1007.7
20260506104709 39 0 0.0 1.0 0.00 0.00 0.00 70 1007.6
20260506103204 39 0 0.0 0.0 0.00 0.00 0.00 68 1007.4
20260506101700 40 0 0.0 0.0 0.00 0.00 0.00 66 1007.3
20260506100156 40 0 0.0 0.0 0.00 0.00 0.00 68 1007.3
20260506094652 40 0 0.0 0.0 0.00 0.00 0.00 66 1007.2
20260506093148 40 0 0.0 0.0 0.00 0.00 0.00 66 1007.1
20260506091644 40 0 0.0 0.0 0.00 0.00 0.00 64 1007.2
20260506084634 39 0 0.0 0.0 0.00 0.00 0.00 63 1006.9
20260506083130 40 0 0.0 0.0 0.00 0.00 0.00 64 1006.7
20260506081626 41 0 0.0 0.0 0.00 0.00 0.00 61 1006.7
20260506080122 41 0 0.0 5.0 0.00 0.00 0.00 62 1006.6
20260506073114 42 0 0.0 0.0 0.00 0.00 0.00 62 1006.7
20260506071610 43 0 0.0 0.0 0.00 0.00 0.00 60 1006.5
20260506070106 43 0 0.0 0.0 0.00 0.00 0.00 59 1006.3
20260506061552 45 0 0.0 2.0 0.00 0.00 0.00 52 1005.7
20260506044524 48 133 2.0 7.0 0.00 0.00 0.00 49 1004.7
20260506043020 49 143 3.0 10.0 0.00 0.00 0.00 47 1004.6
20260506041516 49 167 3.0 10.0 0.00 0.00 0.00 46 1004.6
20260506040012 50 230 3.0 10.0 0.00 0.00 0.00 46 1004.5
20260506034508 51 0 0.0 10.0 0.00 0.00 0.00 44 1004.2
20260506033005 51 177 1.0 7.0 0.00 0.00 0.00 43 1004.1
20260506031500 51 0 0.0 4.0 0.00 0.00 0.00 43 1003.9
20260506025956 51 0 0.0 4.0 0.00 0.00 0.00 46 1003.9
20260506024452 52 278 4.0 8.0 0.00 0.00 0.00 46 1003.7
20260506022946 52 278 2.0 7.0 0.00 0.00 0.00 48 1003.6
20260506015936 52 0 0.0 6.0 0.00 0.00 0.00 48 1003.5
20260506014432 52 263 1.0 6.0 0.00 0.00 0.00 51 1003.5
20260506012926 52 0 0.0 5.0 0.00 0.00 0.00 50 1003.5
20260506011422 53 280 1.0 9.0 0.00 0.00 0.00 47 1003.5
20260506005916 52 0 0.0 7.0 0.00 0.00 0.00 51 1003.6
20260506002906 50 0 0.0 9.0 0.00 0.00 0.00 55 1003.7
20260506001402 51 317 3.0 8.0 0.00 0.00 0.00 56 1003.7
20260505235856 51 331 1.0 10.0 0.00 0.00 0.00 56 1003.7
20260505234352 51 310 7.0 12.0 0.00 0.00 0.00 56 1003.6
20260505232848 51 308 6.0 9.0 0.00 0.00 0.00 54 1003.5
20260505231344 51 276 1.0 10.0 0.00 0.00 0.00 52 1003.5
20260505225840 51 288 3.0 7.0 0.00 0.00 0.00 49 1003.3
20260505224336 51 302 1.0 12.0 0.00 0.00 0.00 48 1003.3
20260505222828 51 287 3.0 10.0 0.00 0.00 0.00 47 1003.2
20260505221324 51 287 4.0 14.0 0.00 0.00 0.00 50 1003.1
20260505215820 51 330 3.0 13.0 0.00 0.00 0.00 49 1003.0
20260505214314 50 332 2.0 8.0 0.00 0.00 0.00 52 1002.9
20260505212810 51 327 4.0 12.0 0.00 0.00 0.00 51 1002.6
20260505211304 51 315 7.0 16.0 0.00 0.00 0.00 57 1002.5
20260505205758 50 291 4.0 11.0 0.00 0.00 0.00 59 1002.5
20260505202748 49 293 4.0 12.0 0.00 0.00 0.00 62 1002.4
20260505201244 49 299 1.0 11.0 0.00 0.00 0.00 62 1002.4
20260505195740 48 303 5.0 10.0 0.00 0.00 0.00 66 1002.3
20260505194236 48 278 1.0 7.0 0.00 0.00 0.00 64 1002.4
20260505192732 47 0 0.0 7.0 0.00 0.00 0.00 69 1002.3
20260505191228 46 0 0.0 5.0 0.00 0.00 0.00 74 1002.3
20260505185724 45 0 0.0 0.0 0.00 0.00 0.00 80 1002.4